H1 CPF 1 NER 2017 10 15 9 7881 glonass103 H2 0606202 9103 29671 2017 10 15 0 0 0 2017 10 18 23 45 0 900 1 1 0 0 0 H9 10 0 58041 0.00000 0 9009487.198 9122550.703 22022144.267 10 0 58041 900.00000 0 8831844.903 11767327.684 20799625.843 10 0 58041 1800.00000 0 8856375.260 14243130.455 19171701.490 10 0 58041 2700.00000 0 9056271.799 16487312.063 17169876.769 10 0 58041 3600.00000 0 9394340.060 18444927.557 14833016.921 10 0 58041 4500.00000 0 9824713.845 20070845.918 12206594.626 10 0 58041 5400.00000 0 10294957.682 21331462.031 9341801.260 10 0 58041 6300.00000 0 10748465.813 22205935.194 6294539.053 10 0 58041 7200.00000 0 11127054.424 22686900.811 3124314.773 10 0 58041 8100.00000 0 11373635.009 22780624.735 -106941.963 10 0 58041 9000.00000 0 11434852.861 22506593.906 -3336110.686 10 0 58041 9900.00000 0 11263576.095 21896561.502 -6500135.821 10 0 58041 10800.00000 0 10821127.119 20993088.707 -9537279.265 10 0 58041 11700.00000 0 10079159.909 19847647.012 -12388343.021 10 0 58041 12600.00000 0 9021102.240 18518363.898 -14997836.020 10 0 58041 13500.00000 0 7643101.155 17067509.796 -17315061.073 10 0 58041 14400.00000 0 5954431.863 15558834.696 -19295100.116 10 0 58041 15300.00000 0 3977353.535 14054868.505 -20899678.662 10 0 58041 16200.00000 0 1746419.186 12614299.739 -22097893.514 10 0 58041 17100.00000 0 -692730.110 11289542.744 -22866791.134 10 0 58041 18000.00000 0 -3285034.878 10124594.695 -23191787.348 10 0 58041 18900.00000 0 -5968080.135 9153270.371 -23066922.583 10 0 58041 19800.00000 0 -8674465.077 8397886.163 -22494949.969 10 0 58041 20700.00000 0 -11334381.067 7868445.498 -21487256.828 10 0 58041 21600.00000 0 -13878291.625 7562356.675 -20063622.929 10 0 58041 22500.00000 0 -16239604.669 7464691.993 -18251821.636 10 0 58041 23400.00000 0 -18357227.966 7548974.863 -16087072.596 10 0 58041 24300.00000 0 -20177904.164 7778460.016 -13611356.920 10 0 58041 25200.00000 0 -21658230.966 8107852.024 -10872607.913 10 0 58041 26100.00000 0 -22766284.932 8485389.625 -7923792.443 10 0 58041 27000.00000 0 -23482783.634 8855208.660 -4821899.673 10 0 58041 27900.00000 0 -23801739.579 9159885.145 -1626855.422 10 0 58041 28800.00000 0 -23730579.840 9343052.743 1599618.243 10 0 58041 29700.00000 0 -23289727.027 9351985.805 4795177.676 10 0 58041 30600.00000 0 -22511659.047 9140040.392 7898045.420 10 0 58041 31500.00000 0 -21439486.285 8668851.346 10848189.398 10 0 58041 32400.00000 0 -20125104.590 7910193.140 13588472.055 10 0 58041 33300.00000 0 -18626999.815 6847425.707 16065748.235 10 0 58041 34200.00000 0 -17007794.171 5476463.218 18231891.265 10 0 58041 35100.00000 0 -15331635.442 3806223.045 20044727.847 10 0 58041 36000.00000 0 -13661536.908 1858533.284 21468863.751 10 0 58041 36900.00000 0 -12056778.322 -332500.503 22476383.953 10 0 58041 37800.00000 0 -10570476.175 -2721646.421 23047412.941 10 0 58041 38700.00000 0 -9247425.002 -5254170.736 23170523.191 10 0 58041 39600.00000 0 -8122300.761 -7867871.129 22842982.346 10 0 58041 40500.00000 0 -7218302.663 -10495436.653 22070832.540 10 0 58041 41400.00000 0 -6546291.823 -13067037.990 20868798.277 10 0 58041 42300.00000 0 -6104464.544 -15513040.971 19260022.646 10 0 58041 43200.00000 0 -5878575.466 -17766730.357 17275635.092 10 0 58041 44100.00000 0 -5842702.441 -19766929.469 14954157.489 10 0 58041 45000.00000 0 -5960521.621 -21460404.697 12340758.979 10 0 58041 45900.00000 0 -6187038.964 -22803952.484 9486373.522 10 0 58041 46800.00000 0 -6470704.246 -23766079.368 6446697.455 10 0 58041 47700.00000 0 -6755816.643 -24328202.755 3281087.532 10 0 58041 48600.00000 0 -6985117.800 -24485320.731 51382.400 10 0 58041 49500.00000 0 -7102459.852 -24246122.168 -3179327.482 10 0 58041 50400.00000 0 -7055432.406 -23632532.771 -6347955.011 10 0 58041 51300.00000 0 -6797834.333 -22678717.398 -9392669.756 10 0 58041 52200.00000 0 -6291883.111 -21429582.596 -12254122.646 10 0 58041 53100.00000 0 -5510066.367 -19938844.949 -14876616.064 10 0 58041 54000.00000 0 -4436556.091 -18266749.317 -17209195.224 10 0 58041 54900.00000 0 -3068125.439 -16477535.572 -19206638.850 10 0 58041 55800.00000 0 -1414529.821 -14636762.585 -20830329.927 10 0 58041 56700.00000 0 501662.879 -12808603.274 -22048990.433 10 0 58041 57600.00000 0 2645784.593 -11053224.735 -22839267.256 10 0 58041 58500.00000 0 4972290.677 -9424362.812 -23186159.861 10 0 58041 59400.00000 0 7426442.514 -7967191.171 -23083283.665 10 0 58041 60300.00000 0 9946378.159 -6716571.712 -22532966.363 10 0 58041 61200.00000 0 12465484.413 -5695756.639 -21546177.514 10 0 58041 62100.00000 0 14914972.062 -4915593.126 -20142294.673 10 0 58041 63000.00000 0 17226548.250 -4374260.600 -18348712.021 10 0 58041 63900.00000 0 19335076.430 -4057548.644 -16200300.061 10 0 58041 64800.00000 0 21181115.441 -3939661.338 -13738727.200 10 0 58041 65700.00000 0 22713234.460 -3984512.560 -11011656.202 10 0 58041 66600.00000 0 23890009.829 -4147456.877 -8071830.509 10 0 58041 67500.00000 0 24681622.845 -4377383.064 -4976067.088 10 0 58041 68400.00000 0 25070993.798 -4619082.686 -1784173.993 10 0 58041 69300.00000 0 25054406.228 -4815795.009 1442187.806 10 0 58041 70200.00000 0 24641596.084 -4911822.338 4640677.873 10 0 58041 71100.00000 0 23855302.105 -4855106.859 7749463.903 10 0 58041 72000.00000 0 22730295.577 -4599661.488 10708401.827 10 0 58041 72900.00000 0 21311928.916 -4107752.957 13460186.908 10 0 58041 73800.00000 0 19654262.119 -3351745.139 15951454.637 10 0 58041 74700.00000 0 17817843.635 -2315524.323 18133810.809 10 0 58041 75600.00000 0 15867236.482 -995444.914 19964771.339 10 0 58041 76500.00000 0 13868391.263 599246.501 21408593.721 10 0 58041 77400.00000 0 11885974.406 2446529.439 22436983.669 10 0 58041 78300.00000 0 9980762.278 4512268.624 23029662.546 10 0 58041 79200.00000 0 8207209.581 6751389.918 23174783.482 10 0 58041 80100.00000 0 6611293.840 9109527.346 22869186.574 10 0 58041 81000.00000 0 5228726.750 11525075.475 22118486.458 10 0 58041 81900.00000 0 4083608.320 13931563.911 20936988.552 10 0 58041 82800.00000 0 3187581.581 16260256.245 19347433.563 10 0 58041 83700.00000 0 2539524.682 18442865.565 17380573.323 10 0 58041 84600.00000 0 2125794.508 20414272.739 15074584.527 10 0 58041 85500.00000 0 1921012.407 22115132.537 12474330.658 10 0 58042 0.00000 0 1889359.079 23494256.776 9630485.951 10 0 58042 900.00000 0 1986323.411 24510672.178 6598538.123 10 0 58042 1800.00000 0 2160830.177 25135265.272 3437691.193 10 0 58042 2700.00000 0 2357654.305 25351941.787 209689.926 10 0 58042 3600.00000 0 2520017.150 25158252.479 -3022408.197 10 0 58042 4500.00000 0 2592251.638 24565457.167 -6195487.482 10 0 58042 5400.00000 0 2522420.449 23598025.466 -9247627.999 10 0 58042 6300.00000 0 2264773.481 22292596.320 -12119332.232 10 0 58042 7200.00000 0 1781938.317 20696442.220 -14754698.415 10 0 58042 8100.00000 0 1046749.407 18865505.140 -17102516.292 10 0 58042 9000.00000 0 43637.857 16862089.302 -19117263.232 10 0 58042 9900.00000 0 -1230476.784 14752310.034 -20759981.296 10 0 58042 10800.00000 0 -2765829.699 12603407.456 -21999018.996 10 0 58042 11700.00000 0 -4540002.799 10481038.511 -22810624.790 10 0 58042 12600.00000 0 -6518656.105 8446660.712 -23179382.665 10 0 58042 13500.00000 0 -8656766.540 6555115.939 -23098483.656 10 0 58042 14400.00000 0 -10900321.273 4852513.259 -22569830.329 10 0 58042 15300.00000 0 -13188394.279 3374496.521 -21603974.430 10 0 58042 16200.00000 0 -15455519.471 2144965.789 -20219890.861 10 0 58042 17100.00000 0 -17634262.208 1175302.535 -18444593.799 10 0 58042 18000.00000 0 -19657883.214 464127.653 -16312603.403 10 0 58042 18900.00000 0 -21462985.763 -2400.608 -13865273.859 10 0 58042 19800.00000 0 -22992037.957 -249763.692 -11149995.608 10 0 58042 20700.00000 0 -24195667.154 -313770.863 -8219286.666 10 0 58042 21600.00000 0 -25034633.083 -238814.370 -5129789.642 10 0 58042 22500.00000 0 -25481399.174 -75765.051 -1941192.514 10 0 58042 23400.00000 0 -25521237.884 120403.687 1284907.292 10 0 58042 24300.00000 0 -25152824.683 293164.465 4486175.134 10 0 58042 25200.00000 0 -24388296.002 387050.999 7600726.568 10 0 58042 26100.00000 0 -23252768.211 350230.639 10568308.340 10 0 58042 27000.00000 0 -21783336.597 136926.913 13331451.388 10 0 58042 27900.00000 0 -20027594.506 -290409.590 15836574.686 10 0 58042 28800.00000 0 -18041732.577 -959273.614 18035019.226 10 0 58042 29700.00000 0 -15888295.310 -1885698.819 19883992.666 10 0 58042 30600.00000 0 -13633686.478 -3073333.492 21347406.465 10 0 58042 31500.00000 0 -11345525.726 -4513039.645 22396588.946 10 0 58042 32400.00000 0 -9089965.106 -6183035.424 23010859.819 10 0 58042 33300.00000 0 -6929076.581 -8049578.258 23177953.907 10 0 58042 34200.00000 0 -4918419.175 -10068163.596 22894284.371 10 0 58042 35100.00000 0 -3104887.538 -12185192.327 22165038.553 10 0 58042 36000.00000 0 -1524932.498 -14340039.923 21004102.590 10 0 58042 36900.00000 0 -203229.161 -16467442.700 19433814.239 10 0 58042 37800.00000 0 848150.426 -18500102.497 17484546.785 10 0 58042 38700.00000 0 1630024.190 -20371400.920 15194130.456 10 0 58042 39600.00000 0 2155833.503 -22018108.575 12607121.450 10 0 58042 40500.00000 0 2450834.054 -23382974.191 9773932.204 10 0 58042 41400.00000 0 2550778.505 -24417082.859 6749839.853 10 0 58042 42300.00000 0 2500147.547 -25081881.953 3593893.101 10 0 58042 43200.00000 0 2350005.909 -25350787.352 367740.213 10 0 58042 44100.00000 0 2155576.489 -25210300.578 -2865597.082 10 0 58042 45000.00000 0 1973638.181 -24660588.677 -6042977.365 10 0 58042 45900.00000 0 1859860.706 -23715502.185 -9102394.140 10 0 58042 46800.00000 0 1866192.335 -22402031.009 -11984204.408 10 0 58042 47700.00000 0 2038413.667 -20759222.557 -14632305.183 10 0 58042 48600.00000 0 2413962.970 -18836609.631 -16995233.565 10 0 58042 49500.00000 0 3020126.198 -16692216.437 -19027168.218 10 0 58042 50400.00000 0 3872668.443 -14390228.720 -20688812.651 10 0 58042 51300.00000 0 4974964.126 -11998427.638 -21948143.941 10 0 58042 52200.00000 0 6317661.539 -9585496.002 -22781013.737 10 0 58042 53100.00000 0 7878894.396 -7218310.023 -23171591.752 10 0 58042 54000.00000 0 9625030.017 -4959329.051 -23112645.408 10 0 58042 54900.00000 0 11511921.427 -2864190.684 -22605652.509 10 0 58042 55800.00000 0 13486609.919 -979609.210 -21660747.001 10 0 58042 56700.00000 0 15489406.486 658338.070 -20296500.790 10 0 58042 57600.00000 0 17456265.333 2025468.622 -18539547.376 10 0 58042 58500.00000 0 19321351.183 3110247.568 -16424055.565 10 0 58042 59400.00000 0 21019694.566 3914007.569 -13991063.950 10 0 58042 60300.00000 0 22489826.139 4450629.434 -11287688.887 10 0 58042 61200.00000 0 23676282.003 4745698.949 -8366220.825 10 0 58042 62100.00000 0 24531877.519 4835176.779 -5283125.485 10 0 58042 63000.00000 0 25019656.487 4763637.887 -2097967.919 10 0 58042 63900.00000 0 25114435.680 4582154.352 1127721.079 10 0 58042 64800.00000 0 24803881.128 4345909.973 4331615.889 10 0 58042 65700.00000 0 24089071.388 4111646.015 7451783.199 10 0 58042 66600.00000 0 22984523.858 3935044.397 10427863.751 10 0 58042 67500.00000 0 21517681.943 3868157.492 13202227.204 10 0 58042 68400.00000 0 19727882.815 3956991.975 15721078.837 10 0 58042 69300.00000 0 17664846.822 4239348.219 17935497.405 10 0 58042 70200.00000 0 15386749.244 4743006.619 19802384.589 10 0 58042 71100.00000 0 12957952.377 5484338.289 21285307.791 10 0 58042 72000.00000 0 10446490.339 6467400.455 22355219.602 10 0 58042 72900.00000 0 7921409.469 7683557.074 22991039.391 10 0 58042 73800.00000 0 5450073.669 9111643.692 23180084.605 10 0 58042 74700.00000 0 3095546.212 10718672.843 22918341.977 10 0 58042 75600.00000 0 914156.894 12461053.714 22210571.614 10 0 58042 76500.00000 0 -1046643.695 14286277.900 21070239.964 10 0 58042 77400.00000 0 -2750052.269 16135002.899 19519280.952 10 0 58042 78300.00000 0 -4171228.344 17943447.586 17587687.990 10 0 58042 79200.00000 0 -5298100.850 19645999.820 15312943.114 10 0 58042 80100.00000 0 -6131630.959 21177926.369 12739293.177 10 0 58042 81000.00000 0 -6685519.456 22478070.116 9916886.527 10 0 58042 81900.00000 0 -6985370.936 23491419.249 6900787.017 10 0 58042 82800.00000 0 -7067350.716 24171437.973 3749885.349 10 0 58042 83700.00000 0 -6976392.609 24482058.145 525730.388 10 0 58042 84600.00000 0 -6764035.524 24399245.750 -2708694.845 10 0 58042 85500.00000 0 -6485983.094 23912074.441 -5890226.188 10 0 58043 0.00000 0 -6199492.695 23023260.070 -8956773.427 10 0 58043 900.00000 0 -5960707.776 21749133.170 -11848550.977 10 0 58043 1800.00000 0 -5822048.300 20119052.359 -14509257.156 10 0 58043 2700.00000 0 -5829773.711 18174283.186 -16887178.740 10 0 58043 3600.00000 0 -6021821.143 15966393.010 -18936197.741 10 0 58043 4500.00000 0 -6426012.174 13555230.434 -20616680.886 10 0 58043 5400.00000 0 -7058703.057 11006576.332 -21896235.311 10 0 58043 6300.00000 0 -7923934.579 8389566.068 -22750317.073 10 0 58043 7200.00000 0 -9013115.856 5773991.492 -23162682.542 10 0 58043 8100.00000 0 -10305253.635 3227595.159 -23125676.153 10 0 58043 9000.00000 0 -11767715.814 813468.468 -22640351.238 10 0 58043 9900.00000 0 -13357495.644 -1412339.774 -21716423.852 10 0 58043 10800.00000 0 -15022922.730 -3402907.530 -20372062.442 10 0 58043 11700.00000 0 -16705748.824 -5122132.923 -18633518.963 10 0 58043 12600.00000 0 -18343521.426 -6545969.715 -16534609.643 10 0 58043 13500.00000 0 -19872146.836 -7663156.879 -14116055.923 10 0 58043 14400.00000 0 -21228536.918 -8475414.991 -11424698.250 10 0 58043 15300.00000 0 -22353230.655 -8997103.790 -8512597.456 10 0 58043 16200.00000 0 -23192882.723 -9254357.227 -5436040.154 10 0 58043 17100.00000 0 -23702516.868 -9283733.398 -2254466.104 10 0 58043 18000.00000 0 -23847451.245 -9130436.353 970663.048 10 0 58043 18900.00000 0 -23604816.258 -8846184.202 4177033.344 10 0 58043 19800.00000 0 -22964601.766 -8486812.355 7302665.353 10 0 58043 20700.00000 0 -21930189.607 -8109711.538 10287096.667 10 0 58043 21600.00000 0 -20518348.189 -7771207.264 13072538.546 10 0 58043 22500.00000 0 -18758687.739 -7523989.977 15604985.414 10 0 58043 23400.00000 0 -16692596.856 -7414703.376 17835256.501 10 0 58043 24300.00000 0 -14371702.228 -7481792.289 19719950.007 10 0 58043 25200.00000 0 -11855913.053 -7753701.173 21222291.457 10 0 58043 26100.00000 0 -9211129.096 -8247500.248 22312859.522 10 0 58043 27000.00000 0 -6506705.453 -8967998.960 22970174.605 10 0 58043 27900.00000 0 -3812777.600 -9907386.547 23181137.730 10 0 58043 28800.00000 0 -1197556.839 -11045417.694 22941309.725 10 0 58043 29700.00000 0 1275292.027 -12350138.536 22255023.581 10 0 58043 30600.00000 0 3549081.591 -13779125.493 21135325.798 10 0 58043 31500.00000 0 5576239.355 -15281187.386 19603745.858 10 0 58043 32400.00000 0 7320061.703 -16798461.247 17689896.346 10 0 58043 33300.00000 0 8756009.828 -18268814.772 15430909.808 10 0 58043 34200.00000 0 9872492.088 -19628454.457 12870722.102 10 0 58043 35100.00000 0 10671099.116 -20814628.853 10059215.499 10 0 58043 36000.00000 0 11166281.369 -21768311.452 7051238.250 10 0 58043 36900.00000 0 11384482.939 -22436747.896 3905520.448 10 0 58043 37800.00000 0 11362769.188 -22775757.579 683508.740 10 0 58043 38700.00000 0 11147007.969 -22751690.056 -2551855.537 10 0 58043 39600.00000 0 10789683.732 -22342951.529 -5737388.523 10 0 58043 40500.00000 0 10347439.913 -21541035.491 -8810919.462 10 0 58043 41400.00000 0 9878456.684 -20351013.247 -11712522.949 10 0 58043 42300.00000 0 9439778.001 -18791463.774 -14385701.588 10 0 58043 43200.00000 0 9084703.558 -16893846.681 -16778494.567 10 0 58043 44100.00000 0 8860357.808 -14701346.098 -18844489.705 10 0 58043 45000.00000 0 8805539.751 -12267235.875 -20543719.123 10 0 58043 45900.00000 0 8948944.369 -9652836.440 -21843421.804 10 0 58043 46800.00000 0 9307829.987 -6925150.369 -22718659.585 10 0 58043 47700.00000 0 9887186.237 -4154276.528 -23152776.425 10 0 58043 48600.00000 0 10679435.795 -1410710.915 -23137694.260 10 0 58043 49500.00000 0 11664680.390 1237354.000 -22674042.033 10 0 58043 50400.00000 0 12811478.839 3726620.391 -21771117.617 10 0 58043 51300.00000 0 14078122.908 6001061.207 -20446685.371 10 0 58043 52200.00000 0 15414356.561 8013985.401 -18726614.781 10 0 58043 53100.00000 0 16763466.170 9729709.532 -16644368.270 10 0 58043 54000.00000 0 18064654.468 11124769.638 -14240348.619 10 0 58043 54900.00000 0 19255599.791 12188626.159 -11561118.558 10 0 58043 55800.00000 0 20275094.754 12923835.290 -8658507.196 10 0 58043 56700.00000 0 21065655.556 13345681.982 -5588619.644 10 0 58043 57600.00000 0 21575994.313 13481291.481 -2410767.727 10 0 58043 58500.00000 0 21763252.393 13368257.407 813658.873 10 0 58043 59400.00000 0 21594902.346 13052844.054 4022360.784 10 0 58043 60300.00000 0 21050239.391 12587837.784 7153315.395 10 0 58043 61200.00000 0 20121399.904 12030136.854 10145960.023 10 0 58043 62100.00000 0 18813863.530 11438179.725 12942350.270 10 0 58043 63000.00000 0 17146416.376 10869318.815 15488272.273 10 0 58043 63900.00000 0 15150574.745 10377249.084 17734288.103 10 0 58043 64800.00000 0 12869490.878 10009599.016 19636694.608 10 0 58043 65700.00000 0 10356383.440 9805785.250 21158377.325 10 0 58043 66600.00000 0 7672555.277 9795221.647 22269542.615 10 0 58043 67500.00000 0 4885078.212 9995959.375 22948313.238 10 0 58043 68400.00000 0 2064238.780 10413817.059 23181174.754 10 0 58043 69300.00000 0 -719150.583 11042039.929 22963262.662 10 0 58043 70200.00000 0 -3396464.262 11861504.975 22298482.963 10 0 58043 71100.00000 0 -5903887.690 12841466.231 21199461.870 10 0 58043 72000.00000 0 -8184843.493 13940811.325 19687323.589 10 0 58043 72900.00000 0 -10192117.655 15109778.478 17791298.583 10 0 58043 73800.00000 0 -11889595.798 16292063.017 15548168.189 10 0 58043 74700.00000 0 -13253535.576 17427225.101 13001555.191 10 0 58043 75600.00000 0 -14273320.758 18453296.751 10201073.446 10 0 58043 76500.00000 0 -14951664.502 19309476.887 7201353.051 10 0 58043 77400.00000 0 -15304253.052 19938798.598 4060960.823 10 0 58043 78300.00000 0 -15358845.394 20290653.494 841238.426 10 0 58043 79200.00000 0 -15153868.170 20323063.890 -2394917.300 10 0 58043 80100.00000 0 -14736567.238 20004604.271 -5584305.625 10 0 58043 81000.00000 0 -14160796.658 19315888.917 -8664677.989 10 0 58043 81900.00000 0 -13484541.571 18250561.453 -11575971.989 10 0 58043 82800.00000 0 -12767282.760 16815744.068 -14261497.032 10 0 58043 83700.00000 0 -12067317.051 15031927.714 -16669047.056 10 0 58043 84600.00000 0 -11439148.966 12932308.832 -18751917.792 10 0 58043 85500.00000 0 -10931065.147 10561601.931 -20469808.544 10 0 58044 0.00000 0 -10582994.307 7974379.505 -21789591.610 10 0 58044 900.00000 0 -10424742.763 5233010.040 -22685935.821 10 0 58044 1800.00000 0 -10474677.545 2405282.150 -23141773.548 10 0 58044 2700.00000 0 -10738912.368 -438186.152 -23148604.733 10 0 58044 3600.00000 0 -11211026.424 -3226645.003 -22706634.087 10 0 58044 4500.00000 0 -11872326.867 -5891905.699 -21824741.107 10 0 58044 5400.00000 0 -12692641.217 -8370919.125 -20520285.502 10 0 58044 6300.00000 0 -13631604.981 -10608134.929 -18818753.370 10 0 58044 7200.00000 0 -14640389.399 -12557546.253 -16753252.090 10 0 58044 8100.00000 0 -15663796.529 -14184338.263 -14363864.254 10 0 58044 9000.00000 0 -16642634.170 -15466075.125 -11696873.108 10 0 58044 9900.00000 0 -17516271.943 -16393378.850 -8803874.095 10 0 58044 10800.00000 0 -18225272.669 -16970074.249 -5740788.736 10 0 58044 11700.00000 0 -18713990.215 -17212795.798 -2566798.718 10 0 58044 12600.00000 0 -18933026.366 -17150073.966 656780.559 10 0 58044 13500.00000 0 -18841444.902 -16820939.710 3867666.740 10 0 58044 14400.00000 0 -18408650.843 -16273105.355 7003796.581 10 0 58044 15300.00000 0 -17615856.261 -15560797.369 10004509.764 10 0 58044 16200.00000 0 -16457070.723 -14742330.853 12811708.936 10 0 58044 17100.00000 0 -14939573.582 -13877526.269 15370974.655 10 0 58044 18000.00000 0 -13083846.466 -13025075.655 17632614.453 10 0 58044 18900.00000 0 -10922966.168 -12239967.976 19552626.287 10 0 58044 19800.00000 0 -8501480.336 -11571081.184 21093557.911 10 0 58044 20700.00000 0 -5873809.698 -11059042.171 22225245.262 10 0 58044 21600.00000 0 -3102240.261 -10734445.124 22925414.969 10 0 58044 22500.00000 0 -254586.160 -10616504.383 23180138.254 10 0 58044 23400.00000 0 2598381.869 -10712200.212 22984126.007 10 0 58044 24300.00000 0 5385637.169 -11015955.565 22340857.580 10 0 58044 25200.00000 0 8038615.611 -11509859.826 21262538.861 10 0 58044 26100.00000 0 10493838.744 -12164432.444 19769888.391 10 0 58044 27000.00000 0 12695331.867 -12939896.322 17891753.762 10 0 58044 27900.00000 0 14596735.128 -13787908.772 15664563.988 10 0 58044 28800.00000 0 16163017.952 -14653677.791 13131627.278 10 0 58044 29700.00000 0 17371723.684 -15478374.174 10342287.163 10 0 58044 30600.00000 0 18213691.054 -16201736.632 7350953.278 10 0 58044 31500.00000 0 18693221.381 -16764758.005 4216026.467 10 0 58044 32400.00000 0 18827684.502 -17112336.640 998740.401 10 0 58044 33300.00000 0 18646580.784 -17195778.096 -2238055.804 10 0 58044 34200.00000 0 18190100.330 -16975038.676 -5431147.889 10 0 58044 35100.00000 0 17507242.503 -16420613.487 -8518212.847 10 0 58044 36000.00000 0 16653577.939 -15514987.372 -11439054.523 10 0 58044 36900.00000 0 15688750.584 -14253586.341 -14136792.203 10 0 58044 37800.00000 0 14673828.116 -12645188.990 -16558977.401 10 0 58044 38700.00000 0 13668615.063 -10711781.011 -18658616.279 10 0 58044 39600.00000 0 12729043.693 -8487859.941 -20395077.497 10 0 58044 40500.00000 0 11904753.542 -6019220.699 -21734868.482 10 0 58044 41400.00000 0 11236961.355 -3361274.247 -22652266.305 10 0 58044 42300.00000 0 10756710.065 -576971.021 -23129792.654 10 0 58044 43200.00000 0 10483568.546 2265583.395 -23158525.896 10 0 58044 44100.00000 0 10424834.395 5095720.798 -22738246.474 10 0 58044 45000.00000 0 10575270.556 7842903.690 -21877415.050 10 0 58044 45900.00000 0 10917384.240 10439408.756 -20592985.858 10 0 58044 46800.00000 0 11422234.121 12822891.025 -18910060.445 10 0 58044 47700.00000 0 12050730.241 14938724.667 -16861389.676 10 0 58044 48600.00000 0 12755370.957 16742026.105 -14486734.194 10 0 58044 49500.00000 0 13482343.762 18199278.383 -11832095.734 10 0 58044 50400.00000 0 14173902.107 19289491.992 -8948833.774 10 0 58044 51300.00000 0 14770919.370 20004856.451 -5892683.712 10 0 58044 52200.00000 0 15215513.987 20350857.442 -2722694.357 10 0 58044 53100.00000 0 15453636.930 20345855.998 499896.047 10 0 58044 54000.00000 0 15437514.177 20020148.014 3712825.096 10 0 58044 54900.00000 0 15127842.613 19414543.427 6853991.825 10 0 58044 55800.00000 0 14495647.650 18578523.942 9862641.101 10 0 58044 56700.00000 0 13523724.432 17568055.442 12680525.275 10 0 58044 57600.00000 0 12207601.250 16443145.426 15253021.782 10 0 58044 58500.00000 0 10555983.117 15265246.494 17530185.844 10 0 58044 59400.00000 0 8590654.574 14094613.479 19467718.508 10 0 58044 60300.00000 0 6345842.820 12987724.091 21027831.470 10 0 58044 61200.00000 0 3867064.549 11994870.770 22179991.689 10 0 58044 62100.00000 0 1209501.182 11158024.832 22901530.795 10 0 58044 63000.00000 0 -1564033.070 10509063.136 23178106.461 10 0 58044 63900.00000 0 -4385448.459 10068432.958 23004005.359 10 0 58044 64800.00000 0 -7183966.426 9844312.766 22382280.152 10 0 58044 65700.00000 0 -9888829.655 9832306.134 21324715.890 10 0 58044 66600.00000 0 -12432023.159 10015683.716 19851624.453 10 0 58044 67500.00000 0 -14750892.949 10366164.950 17991469.087 10 0 58044 68400.00000 0 -16790552.183 10845208.064 15780324.578 10 0 58044 69300.00000 0 -18505972.914 11405754.814 13261182.303 10 0 58044 70200.00000 0 -19863674.348 11994356.412 10483112.928 10 0 58044 71100.00000 0 -20842935.355 12553590.063 7500302.922 10 0 58044 72000.00000 0 -21436479.060 13024662.377 4370984.354 10 0 58044 72900.00000 0 -21650600.161 13350087.290 1156280.080 10 0 58044 73800.00000 0 -21504729.722 13476322.462 -2081011.328 10 0 58044 74700.00000 0 -21030456.742 13356249.733 -5277664.859 10 0 58044 75600.00000 0 -20270049.542 12951391.958 -8371285.755 10 0 58044 76500.00000 0 -19274541.752 12233770.159 -11301546.739 10 0 58044 77400.00000 0 -18101466.469 11187320.880 -14011379.435 10 0 58044 78300.00000 0 -16812337.079 9808813.035 -16448095.200 10 0 58044 79200.00000 0 -15469983.570 8108225.476 -18564412.625 10 0 58044 80100.00000 0 -14135858.686 6108570.029 -20319371.383 10 0 58044 81000.00000 0 -12867428.554 3845168.484 -21679115.303 10 0 58044 81900.00000 0 -11715757.840 1364415.182 -22617530.628 10 0 58044 82800.00000 0 -10723390.242 -1277921.653 -23116728.846 10 0 58044 83700.00000 0 -9922611.671 -4018787.867 -23167366.845 10 0 58044 84600.00000 0 -9334166.673 -6790233.059 -22768800.525 10 0 58044 85500.00000 0 -8966479.128 -9522002.494 -21929071.083 99